Location: Ajisawe
(8.4333°N, 4.3833°E)
Time: 19:07:52
(UTC+00:00)

Courier 1B Rocket - Visible Passes

Search period start: 19 April 2021 00:00
Search period end: 29 April 2021 00:00
Orbit: 920 x 1202 km, 28.2° (Epoch: 19 April)

Date Brightness Start Highest point End Pass type
(mag) Time Alt. Az. Time Alt. Az. Time Alt. Az.
19 Apr 6.4 02:49:55 37° ESE 02:49:55 37° ESE 02:54:10 10° ESE visible
19 Apr 6.3 04:36:21 18° WSW 04:40:13 27° SSW 04:46:22 10° SSE visible
19 Apr 7.3 19:55:38 10° NW 19:59:54 17° N 20:03:31 12° NNE visible
20 Apr 5.9 03:39:47 39° SSW 03:39:47 39° SSW 03:45:59 10° SE visible
20 Apr 7.1 18:53:35 10° WNW 18:58:18 20° NNW 19:03:14 10° NNE visible
20 Apr 7.4 20:49:59 10° NNW 20:52:47 14° N 20:52:47 14° N visible
21 Apr 7.2 02:43:12 19° SE 02:43:12 19° SE 02:45:12 10° SE visible
21 Apr 6.7 04:29:37 16° SW 04:31:28 18° SSW 04:36:20 10° S visible
21 Apr 7.4 19:48:17 10° NW 19:51:46 14° N 19:55:23 10° NNE visible
22 Apr 6.8 03:32:57 22° S 03:32:57 22° S 03:36:23 10° SSE visible
22 Apr 7.3 18:46:17 10° NW 18:50:06 16° N 18:54:01 10° NNE visible
22 Apr 7.4 20:41:52 10° NNW 20:44:42 14° N 20:44:42 14° N visible
23 Apr 7.2 04:22:37 11° SSW 04:22:54 11° SSW 04:24:55 10° SSW visible
23 Apr 7.3 19:40:40 10° NNW 19:43:41 13° N 19:46:47 10° NNE visible
24 Apr 7.4 03:25:48 11° S 03:25:48 11° S 03:26:17 10° S visible
24 Apr 7.3 18:39:01 10° NNW 18:41:58 13° N 18:45:00 10° NNE visible
24 Apr 7.2 20:33:16 10° NNW 20:36:27 16° N 20:36:27 16° N visible
25 Apr 7.3 19:32:32 10° NNW 19:35:36 13° N 19:38:46 10° NE visible
25 Apr 7.7 21:24:56 10° NW 21:25:27 12° NNW 21:25:27 12° NNW visible
26 Apr 7.3 18:31:27 10° NNW 18:33:54 12° N 18:36:24 10° NNE visible
26 Apr 7.0 20:24:23 10° NNW 20:28:05 19° N 20:28:05 19° N visible
27 Apr 7.1 19:23:51 10° NNW 19:27:28 15° NNE 19:30:44 11° NE visible
27 Apr 7.5 21:15:56 10° NW 21:17:05 15° NW 21:17:05 15° NW visible
28 Apr 7.2 18:23:13 10° NNW 18:25:50 12° N 18:28:29 10° NNE visible
28 Apr 6.6 20:15:22 10° NNW 20:19:43 24° N 20:19:43 24° N visible
